Regional Weather Roundup
Issued by NWS

Home | Current Version | Previous Version | Graphics & Text | Print | Product List | Glossary Off
Versions: 1 2 3 4 5 6 7 8 9 10 11 12 13 14 15 16 17 18 19 20 21 22 23 24 25 26 27 28 29 30 31 32 33 34 35 36 37 38 39 40 41 42 43 44 45 46 47 48 49 50

000
ASUS43 KTOP 301508
RWRKS

WEATHER ROUNDUP FOR KANSAS
NATIONAL WEATHER SERVICE GOODLAND KS
1000 AM CDT THU OCT 30 2014

NOTE:  "FAIR" INDICATES FEW OR NO CLOUDS BELOW 12,000 FEET WITH NO
SIGNIFICANT WEATHER AND/OR OBSTRUCTIONS TO VISIBILITY.

KSZ001>006-013>018-027>032-041>047-301600-
NORTHWEST KANSAS

CITY           SKY/WX    TMP DP  RH WIND       PRES   REMARKS
GOODLAND       SUNNY     50  28  42 NW14      30.32R
HAYS           SUNNY     55  30  38 NW17      30.21R
HILL CITY      SUNNY     54  30  40 NW13      30.24R
RUSSELL        SUNNY     54  32  43 NW17      30.18R
$$

KSZ061>065-074>080-084>089-301600-
SOUTHWEST KANSAS

CITY           SKY/WX    TMP DP  RH WIND       PRES   REMARKS
DODGE CITY     SUNNY     54  30  40 N13       30.24R
ELKHART          N/A     52  25  35 N12         N/A
GARDEN CITY    SUNNY     53  30  41 N12       30.26R
GREAT BEND     SUNNY     54  32  43 NW13      30.19R
LIBERAL        SUNNY     52  34  50 NW12      30.27R
PRATT          SUNNY     55  32  41 N15       30.19R
$$

KSZ066>073-081>083-090>101-301600-
SOUTHEAST KANSAS

CITY           SKY/WX    TMP DP  RH WIND       PRES   REMARKS
CHANUTE        MOSUNNY   57  43  59 SW14      30.05R
COFFEYVILLE    PTSUNNY   57  44  62 SW10      30.07F
HUTCHINSON     SUNNY     60  35  39 N14G24    30.16R
MEDICINE LODGE   N/A     59  35  40 N18G26    30.15R
NEWTON         SUNNY     57  36  44 N16G24    30.15R
PARSONS        MOSUNNY   59  44  57 SW10G21   30.08R
WICHITA INTL   MOSUNNY   59  38  45 N18       30.12R
WICHITA JABRA  SUNNY     59  39  47 N16       30.11R
WICHITA MCCONL SUNNY     58  37  45 N15G26    30.12R
WINFIELD       MOSUNNY   57  40  52 W10       30.13R
$$

KSZ007>012-019>026-033>040-048>060-102>105-301600-
NORTHEAST KANSAS

CITY           SKY/WX    TMP DP  RH WIND       PRES   REMARKS
CONCORDIA      SUNNY     54  38  54 NW8       30.14R
EMPORIA        SUNNY     57  39  51 NW13      30.06R
LAWRENCE       PTSUNNY   53  44  71 W3        30.04R
MANHATTAN      SUNNY     58  38  47 N10       30.09R
MARYSVILLE     SUNNY     54  37  54 N13       30.09R
OLATHE IND     PTSUNNY   54  43  66 SW5       30.04R
OLATHE EXE     MOSUNNY   54  43  66 SW6       30.02S
SALINA         SUNNY     56  37  49 NW16      30.14R
TOPEKA BILLARD MOSUNNY   58  41  53 W9        30.05R
TOPEKA FORBES  SUNNY     58  40  51 NW16      30.04R
$$



USA.gov is the U.S. government's official web portal to all federal, state and local government web resources and services.